Total_Precipitation_Accumulation
0.87 0.91 0.88 0.70 0.66 0.61 0.55 0.50 0.49 0.50 0.55 0.67 0.78 0.80 0.74 0.64 0.49 0.37 0.29 0.25 0.20 0.23 0.34 0.27 0.32 0.28 0.33 0.34 0.27 0.43 0.49 0.38 0.27 0.19 0.12 0.05 0.03 0.05 0.10 0.14 0.16 0.11 0.06
0.69 0.72 0.66 0.59 0.60 0.75 0.82 0.74 0.65 0.61 0.61 0.82 1.09 1.24 1.26 1.06 0.73 0.50 0.36 0.28 0.24 0.27 0.31 0.35 0.30 0.33 0.41 0.46 0.49 0.55 0.46 0.35 0.31 0.30 0.27 0.14 0.11 0.11 0.18 0.30 0.31 0.21 0.11
0.37 0.41 0.42 0.45 0.50 0.60 0.62 0.55 0.50 0.50 0.51 0.59 0.76 0.94 1.14 1.16 0.87 0.56 0.41 0.33 0.25 0.22 0.27 0.34 0.36 0.43 0.48 0.60 0.71 0.61 0.51 0.42 0.41 0.40 0.42 0.33 0.24 0.14 0.08 0.10 0.17 0.20 0.16
0.33 0.39 0.41 0.40 0.41 0.43 0.43 0.44 0.47 0.51 0.56 0.61 0.66 0.83 1.03 1.00 0.81 0.61 0.43 0.32 0.23 0.19 0.25 0.33 0.38 0.46 0.53 0.66 0.64 0.61 0.66 0.62 0.58 0.57 0.53 0.46 0.38 0.30 0.12 0.05 0.09 0.13 0.16
0.32 0.36 0.41 0.43 0.42 0.45 0.50 0.53 0.58 0.63 0.67 0.69 0.68 0.72 1.01 0.98 0.73 0.57 0.44 0.33 0.26 0.25 0.28 0.36 0.42 0.46 0.52 0.61 0.62 0.74 0.72 0.73 0.70 0.63 0.58 0.58 0.52 0.43 0.30 0.15 0.07 0.06 0.07
0.36 0.42 0.48 0.49 0.46 0.48 0.54 0.55 0.55 0.56 0.58 0.57 0.57 0.54 0.65 0.68 0.59 0.53 0.46 0.37 0.31 0.32 0.37 0.39 0.43 0.45 0.52 0.61 0.63 0.62 0.60 0.62 0.64 0.58 0.52 0.55 0.52 0.47 0.45 0.32 0.20 0.12 0.06
0.37 0.40 0.45 0.48 0.50 0.50 0.51 0.49 0.47 0.45 0.39 0.34 0.31 0.30 0.34 0.43 0.46 0.42 0.40 0.38 0.32 0.29 0.31 0.36 0.41 0.43 0.48 0.58 0.57 0.52 0.50 0.53 0.54 0.50 0.50 0.50 0.48 0.48 0.53 0.58 0.48 0.36 0.18
0.31 0.30 0.33 0.37 0.41 0.44 0.46 0.45 0.43 0.41 0.39 0.34 0.30 0.23 0.23 0.32 0.40 0.44 0.43 0.41 0.34 0.26 0.24 0.28 0.34 0.39 0.42 0.49 0.57 0.58 0.57 0.54 0.52 0.51 0.58 0.56 0.49 0.47 0.53 0.65 0.73 0.69 0.45
0.31 0.28 0.27 0.29 0.30 0.31 0.32 0.35 0.38 0.42 0.41 0.39 0.32 0.24 0.25 0.35 0.40 0.43 0.46 0.50 0.47 0.42 0.36 0.35 0.38 0.41 0.46 0.54 0.62 0.69 0.67 0.65 0.63 0.65 0.66 0.56 0.47 0.44 0.52 0.70 0.80 0.84 0.69
0.31 0.26 0.22 0.19 0.19 0.22 0.27 0.37 0.48 0.49 0.40 0.32 0.25 0.19 0.23 0.38 0.39 0.34 0.35 0.42 0.47 0.48 0.43 0.41 0.42 0.43 0.46 0.50 0.54 0.63 0.67 0.69 0.73 0.72 0.68 0.65 0.62 0.61 0.64 0.73 0.81 0.83 0.78
0.30 0.26 0.20 0.16 0.16 0.18 0.22 0.30 0.35 0.39 0.33 0.23 0.17 0.12 0.10 0.16 0.21 0.22 0.21 0.24 0.30 0.34 0.32 0.30 0.27 0.25 0.25 0.27 0.30 0.35 0.40 0.44 0.46 0.46 0.50 0.61 0.71 0.70 0.72 0.74 0.72 0.77 0.79
0.21 0.18 0.17 0.17 0.17 0.19 0.20 0.20 0.19 0.17 0.16 0.14 0.11 0.07 0.04 0.02 0.02 0.04 0.06 0.07 0.10 0.12 0.10 0.09 0.08 0.07 0.07 0.08 0.10 0.13 0.16 0.21 0.24 0.29 0.36 0.44 0.50 0.54 0.59 0.62 0.63 0.67 0.75
0.22 0.20 0.19 0.18 0.18 0.19 0.18 0.17 0.16 0.13 0.11 0.10 0.09 0.07 0.04 0.02 0.01 0.00 0.00 0.00 0.01 0.01 0.01 0.01 0.02 0.02 0.01 0.01 0.01 0.03 0.05 0.08 0.12 0.16 0.19 0.19 0.24 0.30 0.34 0.40 0.47 0.52 0.72
0.18 0.18 0.19 0.19 0.18 0.16 0.13 0.11 0.10 0.10 0.09 0.09 0.10 0.10 0.07 0.04 0.01 0.00 0.00 0.00 0.00 0.00 0.00 0.00 0.00 0.00 0.00 0.00 0.01 0.03 0.05 0.06 0.08 0.09 0.08 0.08 0.11 0.17 0.23 0.31 0.34 0.38 0.46
0.18 0.19 0.21 0.21 0.18 0.14 0.11 0.07 0.06 0.08 0.08 0.08 0.09 0.10 0.08 0.06 0.02 0.01 0.00 0.00 0.00 0.00 0.00 0.00 0.00 0.00 0.00 0.00 0.01 0.04 0.06 0.09 0.11 0.10 0.06 0.06 0.07 0.09 0.10 0.16 0.23 0.28 0.40
0.19 0.16 0.16 0.14 0.13 0.10 0.07 0.06 0.06 0.06 0.07 0.07 0.07 0.08 0.10 0.08 0.04 0.01 0.01 0.01 0.00 0.00 0.00 0.00 0.00 0.00 0.00 0.00 0.00 0.01 0.04 0.05 0.06 0.06 0.05 0.03 0.05 0.09 0.12 0.14 0.15 0.15 0.23
0.11 0.09 0.10 0.09 0.07 0.05 0.05 0.07 0.07 0.07 0.08 0.07 0.06 0.07 0.10 0.11 0.07 0.03 0.02 0.01 0.01 0.01 0.01 0.01 0.00 0.00 0.00 0.00 0.00 0.00 0.01 0.01 0.01 0.02 0.02 0.01 0.03 0.06 0.09 0.10 0.08 0.08 0.09
0.03 0.03 0.02 0.03 0.03 0.03 0.05 0.09 0.12 0.14 0.15 0.12 0.08 0.07 0.08 0.08 0.06 0.04 0.03 0.04 0.04 0.05 0.05 0.04 0.01 0.00 0.00 0.00 0.00 0.00 0.00 0.00 0.00 0.00 0.00 0.00 0.00 0.01 0.01 0.06 0.07 0.02 0.01
0.01 0.01 0.01 0.02 0.02 0.05 0.10 0.15 0.21 0.24 0.22 0.17 0.11 0.08 0.09 0.11 0.11 0.06 0.03 0.03 0.04 0.05 0.06 0.06 0.04 0.01 0.00 0.00 0.00 0.00 0.00 0.00 0.00 0.00 0.00 0.00 0.00 0.00 0.00 0.03 0.03 0.02 0.00
0.01 0.01 0.02 0.04 0.06 0.10 0.13 0.19 0.24 0.27 0.25 0.18 0.11 0.08 0.08 0.08 0.09 0.07 0.05 0.04 0.03 0.03 0.03 0.05 0.05 0.02 0.00 0.00 0.00 0.00 0.00 0.01 0.00 0.00 0.00 0.00 0.00 0.00 0.00 0.00 0.01 0.01 0.00
0.01 0.01 0.04 0.06 0.08 0.08 0.11 0.17 0.23 0.24 0.18 0.11 0.06 0.07 0.07 0.08 0.08 0.09 0.11 0.10 0.09 0.07 0.05 0.05 0.05 0.04 0.01 0.00 0.00 0.00 0.00 0.00 0.00 0.00 0.00 0.00 0.00 0.00 0.00 0.00 0.00 0.00 0.00
0.00 0.02 0.07 0.10 0.08 0.07 0.09 0.12 0.14 0.14 0.12 0.07 0.04 0.04 0.07 0.08 0.11 0.20 0.23 0.23 0.19 0.11 0.09 0.07 0.07 0.06 0.05 0.01 0.00 0.00 0.00 0.00 0.00 0.00 0.00 0.00 0.00 0.00 0.00 0.00 0.00 0.00 0.00
0.01 0.03 0.06 0.08 0.11 0.13 0.12 0.11 0.08 0.06 0.07 0.08 0.09 0.06 0.06 0.08 0.10 0.14 0.18 0.18 0.13 0.08 0.07 0.08 0.08 0.08 0.08 0.04 0.00 0.00 0.00 0.00 0.01 0.00 0.00 0.00 0.00 0.00 0.00 0.00 0.00 0.00 0.00
0.02 0.04 0.08 0.12 0.16 0.19 0.15 0.09 0.06 0.04 0.06 0.11 0.16 0.16 0.13 0.11 0.07 0.07 0.08 0.09 0.07 0.05 0.06 0.06 0.06 0.06 0.06 0.04 0.02 0.01 0.00 0.00 0.00 0.00 0.00 0.00 0.00 0.00 0.00 0.00 0.00 0.00 0.00
0.01 0.04 0.09 0.13 0.13 0.15 0.15 0.10 0.06 0.06 0.08 0.09 0.10 0.12 0.14 0.18 0.16 0.12 0.11 0.11 0.10 0.09 0.11 0.11 0.10 0.08 0.06 0.03 0.02 0.01 0.01 0.01 0.00 0.00 0.01 0.01 0.01 0.01 0.00 0.00 0.00 0.00 0.00
0.00 0.01 0.05 0.07 0.08 0.09 0.09 0.07 0.08 0.09 0.12 0.12 0.13 0.14 0.15 0.15 0.16 0.14 0.11 0.11 0.11 0.11 0.12 0.12 0.11 0.10 0.07 0.04 0.03 0.01 0.01 0.01 0.01 0.00 0.01 0.01 0.01 0.00 0.00 0.00 0.00 0.00 0.00